LYZIP EYVI-EYVI

Flight info

Callsign LYZIP
Flight time 0h 3m
Altitude 2000
Route EYVI
Aircraft C150/L-V/N

Departure

Time 2026-04-27 18:24
Airport Vilnius International Airport (EYVI)

Arrival

Time 2026-04-27 18:28
Airport Vilnius International Airport (EYVI)
Time Latitude Longitude Altitude Speed Heading
2026-04-27 18:11 54.63315 25.28110 592 ft 0 kts 118°
2026-04-27 18:19 54.63308 25.28124 592 ft 4 kts 161°
2026-04-27 18:20 54.63271 25.28121 591 ft 4 kts 124°
2026-04-27 18:20 54.63259 25.28155 590 ft 3 kts 154°
2026-04-27 18:20 54.63226 25.28141 589 ft 6 kts 207°
2026-04-27 18:20 54.63177 25.28105 588 ft 8 kts 203°
2026-04-27 18:21 54.63114 25.28061 588 ft 10 kts 201°
2026-04-27 18:21 54.63040 25.28013 587 ft 12 kts 205°
2026-04-27 18:21 54.62984 25.28083 585 ft 11 kts 107°
2026-04-27 18:21 54.62961 25.28234 582 ft 15 kts 71°
2026-04-27 18:22 54.63098 25.28352 585 ft 43 kts 21°
2026-04-27 18:22 54.63421 25.28634 733 ft 54 kts 21°
2026-04-27 18:22 54.63741 25.28946 924 ft 55 kts 24°
2026-04-27 18:22 54.63865 25.29087 980 ft 44 kts 25°
2026-04-27 18:23 54.64041 25.29324 985 ft 46 kts 32°
2026-04-27 18:23 54.64008 25.29711 948 ft 56 kts 146°
2026-04-27 18:23 54.63675 25.29787 880 ft 61 kts 186°
2026-04-27 18:24 54.63427 25.29798 986 ft 65 kts 175°
2026-04-27 18:24 54.63025 25.29885 1119 ft 75 kts 176°
2026-04-27 18:24 54.62676 25.29936 1208 ft 82 kts 179°
2026-04-27 18:24 54.62022 25.29848 1375 ft 89 kts 195°
2026-04-27 18:25 54.61462 25.29635 1486 ft 94 kts 199°
2026-04-27 18:25 54.60817 25.29296 1557 ft 98 kts 204°
2026-04-27 18:25 54.60253 25.28918 1507 ft 82 kts 218°
2026-04-27 18:25 54.59969 25.28225 1324 ft 67 kts 261°
2026-04-27 18:26 54.59984 25.27922 1259 ft 55 kts 303°
2026-04-27 18:26 54.60164 25.27635 1153 ft 53 kts 326°
2026-04-27 18:26 54.60490 25.27354 1031 ft 53 kts 341°
2026-04-27 18:26 54.60852 25.27244 937 ft 55 kts 352°
2026-04-27 18:27 54.61206 25.27237 850 ft 55 kts 360°
2026-04-27 18:27 54.61572 25.27346 805 ft 51 kts
2026-04-27 18:27 54.61921 25.27549 734 ft 54 kts 14°
2026-04-27 18:27 54.62277 25.27787 664 ft 55 kts 15°
2026-04-27 18:28 54.62624 25.28033 600 ft 48 kts 15°
2026-04-27 18:28 54.62886 25.28194 581 ft 49 kts 20°
2026-04-27 18:28 54.63211 25.28480 793 ft 53 kts 20°
2026-04-27 18:28 54.63491 25.28763 907 ft 38 kts 24°
2026-04-27 18:29 54.63584 25.29247 954 ft 71 kts 110°
2026-04-27 18:29 54.63189 25.29802 1070 ft 83 kts 162°
2026-04-27 18:29 54.62619 25.29993 1114 ft 87 kts 174°
2026-04-27 18:29 54.62077 25.30380 1177 ft 92 kts 130°
2026-04-27 18:30 54.61977 25.31320 1245 ft 80 kts 73°
2026-04-27 18:30 54.62074 25.32257 1307 ft 78 kts 68°
2026-04-27 18:30 54.62396 25.32849 1353 ft 70 kts
2026-04-27 18:30 54.62880 25.33028 1395 ft 75 kts 20°
2026-04-27 18:31 54.63346 25.33228 1403 ft 72 kts 345°
2026-04-27 18:31 54.63615 25.32584 1429 ft 76 kts 273°
2026-04-27 18:31 54.63549 25.31781 1473 ft 75 kts 266°
2026-04-27 18:31 54.63303 25.31017 1475 ft 78 kts 227°
2026-04-27 18:32 54.62746 25.30737 1445 ft 90 kts 191°
2026-04-27 18:32 54.62133 25.30627 1481 ft 87 kts 194°
2026-04-27 18:32 54.61530 25.30430 1478 ft 89 kts 195°
2026-04-27 18:32 54.60936 25.30257 1389 ft 91 kts 193°
2026-04-27 18:33 54.60321 25.30067 1206 ft 88 kts 199°
2026-04-27 18:33 54.59828 25.29828 1061 ft 84 kts 199°
2026-04-27 18:33 54.59313 25.29567 963 ft 71 kts 211°
2026-04-27 18:33 54.59045 25.29025 964 ft 58 kts 278°
2026-04-27 18:34 54.59204 25.28547 1005 ft 53 kts 321°
2026-04-27 18:34 54.59446 25.28223 1043 ft 52 kts 329°
2026-04-27 18:34 54.59782 25.28015 1043 ft 55 kts 339°
2026-04-27 18:34 54.60126 25.27715 1052 ft 65 kts 333°
2026-04-27 18:35 54.60528 25.27415 981 ft 64 kts 338°
2026-04-27 18:35 54.60943 25.27257 919 ft 58 kts 356°
2026-04-27 18:35 54.61347 25.27283 863 ft 60 kts
2026-04-27 18:35 54.61754 25.27455 779 ft 61 kts 17°
2026-04-27 18:36 54.62135 25.27694 697 ft 57 kts 17°
2026-04-27 18:36 54.62485 25.27937 621 ft 54 kts 17°
2026-04-27 18:36 54.62806 25.28157 580 ft 43 kts 20°
2026-04-27 18:36 54.63097 25.28357 585 ft 64 kts 20°
2026-04-27 18:37 54.63459 25.28628 813 ft 52 kts 19°
2026-04-27 18:37 54.63729 25.28968 947 ft 55 kts 65°
2026-04-27 18:37 54.63602 25.29714 1045 ft 79 kts 121°
2026-04-27 18:37 54.63180 25.30380 1223 ft 89 kts 154°
2026-04-27 18:38 54.62568 25.30559 1397 ft 92 kts 189°
2026-04-27 18:38 54.61995 25.30155 1464 ft 97 kts 210°
2026-04-27 18:38 54.61387 25.29694 1518 ft 98 kts 199°
2026-04-27 18:38 54.60762 25.29393 1557 ft 95 kts 198°
2026-04-27 18:39 54.60223 25.29139 1489 ft 82 kts 201°
2026-04-27 18:39 54.59779 25.28651 1255 ft 84 kts 226°
2026-04-27 18:39 54.59641 25.27975 1117 ft 73 kts 297°
2026-04-27 18:39 54.60033 25.27443 1005 ft 65 kts 330°
2026-04-27 18:40 54.60412 25.27166 921 ft 57 kts 345°
2026-04-27 18:40 54.60803 25.27108 906 ft 62 kts 360°
2026-04-27 18:40 54.61226 25.27203 889 ft 56 kts
2026-04-27 18:40 54.61608 25.27365 808 ft 57 kts 13°
2026-04-27 18:41 54.61978 25.27591 725 ft 56 kts 17°
2026-04-27 18:41 54.62333 25.27835 648 ft 56 kts 17°
2026-04-27 18:41 54.62659 25.28055 586 ft 44 kts 17°
2026-04-27 18:41 54.62849 25.28179 580 ft 31 kts 22°
2026-04-27 18:42 54.62965 25.28158 583 ft 14 kts 296°
2026-04-27 18:42 54.62986 25.28077 585 ft 8 kts 291°
2026-04-27 18:42 54.63013 25.28012 587 ft 5 kts 345°
2026-04-27 18:42 54.63064 25.28030 587 ft 11 kts 29°
2026-04-27 18:43 54.63155 25.28092 588 ft 16 kts 16°
2026-04-27 18:43 54.63269 25.28171 591 ft 17 kts 21°
2026-04-27 18:43 54.63345 25.28226 592 ft 3 kts 11°
2026-04-27 18:43 54.63360 25.28187 593 ft 6 kts 284°
2026-04-27 18:44 54.63369 25.28116 594 ft 7 kts 222°
2026-04-27 18:44 54.63325 25.28086 593 ft 3 kts 184°
2026-04-27 18:44 54.63317 25.28104 593 ft 0 kts 123°
2026-04-27 18:44 54.63315 25.28110 592 ft 0 kts 116°
2026-04-27 18:45 54.63315 25.28111 592 ft 0 kts 116°